Home > Weather > Horsham > Past weeks

Flag for United Kingdom Weather for the Past 2 Weeks in Horsham, England, United Kingdom

Now
37 °F

Clear.


Feels Like: 29 °F
Forecast: N/A
Wind: 13 mph from North

Location: London / Gatwick Airport

Current Time: Feb 14, 2016 at 7:43:11 PM

Latest Report: Feb 14, 2016 at 7:20 PM


Visibility: 10 mi

Pressure: 29.68 "Hg

Humidity: 60%

Dew point: 25 °F

Location of HorshamLocation

Historic Weather in Horsham — Graph

°F

Horsham Temperature Yesterday

Maximum temperature yesterday: 39 °F (at 12:50 PM)
Minimum temperature yesterday: 30 °F (at 2:20 AM)
Average temperature yesterday: 37 °F

High & Low Weather Summary for the Past Weeks

 TemperatureHumidityPressure
High55 °F (Jan 31, 4:20 PM)100% (Jan 31, 9:20 AM)30.39 "Hg (Jan 31, 9:20 AM)
Low27 °F (Feb 11, 3:20 AM)54% (Feb 2, 1:50 PM)29.00 "Hg (Feb 13, 11:50 AM)
Average44 °F83%29.64 "Hg
* Reported Jan 30 6:20 PM — Feb 14 6:20 PM, Horsham, Weather by CustomWeather, © 2016

Note: Actual official high and low records may vary slightly from our data, if they occured in-between our weather recording intervals... More about our weather records

Advertising

Horsham Weather History for the Previous 24 Hours

 ConditionsComfort  
Time TempWeatherWind HumidityBarometerVisibility
6:20 PM
Sun, Feb 14
37 °FClear.15 mph60%29.62 "Hg10 mi
5:50 PM37 °FClear.13 mph60%29.62 "Hg10 mi
5:20 PM39 °FClear.15 mph61%29.59 "Hg10 mi
4:50 PM39 °FPassing clouds.16 mph65%29.56 "HgN/A
4:20 PM41 °FScattered clouds.17 mph61%29.53 "HgN/A
3:50 PM41 °FPassing clouds.15 mph66%29.53 "HgN/A
3:20 PM43 °FScattered clouds.17 mph66%29.50 "HgN/A
2:50 PM43 °FScattered clouds.15 mph66%29.47 "HgN/A
2:20 PM43 °FScattered clouds.16 mph66%29.45 "HgN/A
1:50 PM43 °FScattered clouds.14 mph66%29.45 "HgN/A
1:20 PM45 °FScattered clouds.15 mph66%29.42 "HgN/A
12:50 PM43 °FScattered clouds.16 mph71%29.42 "HgN/A
12:20 PM43 °FScattered clouds.14 mph71%29.39 "HgN/A
11:50 AM43 °FScattered clouds.14 mph71%29.39 "HgN/A
11:20 AM41 °FScattered clouds.12 mph81%29.39 "HgN/A
10:50 AM41 °FScattered clouds.10 mph81%29.36 "HgN/A
10:20 AM41 °FBroken clouds.10 mph81%29.36 "HgN/A
9:50 AM39 °FPassing clouds.12 mph87%29.33 "HgN/A
9:20 AM37 °FPassing clouds.10 mph93%29.30 "HgN/A
8:50 AM37 °FPassing clouds.9 mph87%29.30 "HgN/A
8:20 AM37 °FPassing clouds.8 mph87%29.27 "Hg4 mi
7:20 AM36 °FClear.8 mph93%29.24 "Hg4 mi
6:50 AM37 °FPassing clouds.9 mph93%29.24 "Hg4 mi
6:20 AM37 °FPassing clouds.7 mph93%29.21 "Hg2 mi
5:50 AM37 °FLight rain. Passing clouds.6 mph93%29.21 "Hg2 mi
5:20 AM37 °FPartly cloudy.7 mph93%29.21 "Hg2 mi
4:50 AM37 °FLight rain. Passing clouds.6 mph93%29.21 "Hg2 mi
4:20 AM37 °FLight rain. Passing clouds.6 mph93%29.18 "Hg2 mi
3:50 AM37 °FLight rain. Passing clouds.6 mph93%29.18 "Hg2 mi
3:20 AM37 °FLight rain. Passing clouds.7 mph93%29.18 "Hg2 mi
2:50 AM37 °FPassing clouds.6 mph93%29.18 "Hg2 mi
2:20 AM37 °FPassing clouds.6 mph93%29.18 "Hg2 mi
1:20 AM37 °FLight rain. Passing clouds.6 mph93%29.15 "Hg3 mi
12:50 AM37 °FPassing clouds.7 mph100%29.15 "Hg3 mi
12:20 AM39 °FPassing clouds.7 mph93%29.15 "Hg3 mi
11:50 PM
Sat, Feb 13
39 °FPassing clouds.6 mph93%29.15 "Hg3 mi
11:20 PM39 °FPassing clouds.7 mph93%29.15 "Hg4 mi
10:50 PM39 °FLight rain. Passing clouds.7 mph93%29.15 "Hg4 mi
10:20 PM39 °FLight rain. Passing clouds.8 mph93%29.15 "Hg4 mi
9:20 PM39 °FLight rain. Passing clouds.9 mph93%29.12 "Hg4 mi
8:50 PM39 °FLight rain. Passing clouds.8 mph93%29.12 "Hg4 mi
8:20 PM39 °FLight rain. Passing clouds.8 mph93%29.12 "Hg4 mi
7:50 PM39 °FLight rain. Passing clouds.7 mph93%29.12 "Hg5 mi
7:20 PM39 °FLight rain. Passing clouds.8 mph93%29.12 "Hg4 mi
Weather by CustomWeather, © 2016

See weather overviewHow to use our weather pages